AirNav   TITAN Aviation Fuels
 
 1623 users online  

3VA5 Goose Hunt Farm Airport
Leesburg, Virginia, USA

GOING TO LEESBURG?


FAA INFORMATION EFFECTIVE 17 JUNE 2021

Location

FAA Identifier: 3VA5
Lat/Long: 39-01-44.0000N 077-37-30.0000W
39-01.733333N 077-37.500000W
39.0288889,-77.6250000
(estimated)
Elevation: 340 ft. / 104 m (estimated)
From city: 6 miles N of LEESBURG, VA
Time zone: UTC -4 (UTC -5 during Standard Time)
Zip code: 20175

Airport Operations

Airport use: Private use. Permission required prior to landing
Activation date: 01/2008
Control tower: no
ARTCC: WASHINGTON CENTER
FSS: LEESBURG FLIGHT SERVICE STATION
Attendance: IRREG
Wind indicator: yes
Segmented circle: no

Airport Communications

WX AWOS-3 at JYO (4 nm NE): 125.225 (703-777-3781)
WX ASOS at IAD (9 nm SE): PHONE 703-661-2990
WX AWOS-3PT at HEF (19 nm S): PHONE 703-361-6160

Nearby radio navigation aids

VOR radial/distance  VOR name  Freq  Var
AMLr315/9.3ARMEL VOR/DME113.5008W
MRBr161/23.8MARTINSBURG VORTAC112.1007W
FDKr215/(25.8)FREDERICK VOR109.0008W
CSNr032/25.8CASANOVA VORTAC116.3006W
LDNr075/29.0LINDEN VORTAC114.3006W
DCAr299/29.3WASHINGTON VOR/DME111.0009W
ADWr301/37.8ANDREWS VORTAC113.1010W

 
NDB name  Hdg/Dist  Freq  Var  ID
GEORGETOWN293/24.132309WGTN --. - -.
OXONN310/32.133211WDCA -.. -.-. .-
DAVEE321/32.622309WDAA -.. .- .-
NAILR031/36.935110WMSQ -- ... --.-

Airport Services

Runway Information

Runway 17/35

Dimensions: 1700 x 100 ft. / 518 x 30 m
Surface: turf
RUNWAY 17  RUNWAY 35
Traffic pattern: leftleft

Airport Ownership and Management from official FAA records

Ownership: Privately-owned
Owner: NEAL C. NICHOLS
21467 OATLANDS RD
ALDIE, VA 20105
Phone 703-609-4900
Manager: NEAL C. NICHOLS
1200 N. HUDSON STREET
ARLINGTON, VA 22201
Phone 703-525-0900

Additional Remarks

450 FT MICROWAVE TWR 2 NM NE.
FOR CD CTC POTOMAC APCH AT 866-709-4993.

Instrument Procedures

There are no published instrument procedures at 3VA5.

Some nearby airports with instrument procedures:

KJYO - Leesburg Executive Airport (4 nm NE)
KIAD - Washington Dulles International Airport (9 nm SE)
2VG2 - Upperville Airport (12 nm W)
9VA5 - Bluegrass Heliport (13 nm W)
KHEF - Manassas Regional Airport/Harry P. Davis Field (19 nm S)
 
Loc | Ops | Rwys | IFR | FBO | Links
Com | Nav | Svcs | Stats | Notes
Aerial photo
No photo
 
Sectional chart

 
Airport distance calculator
Flying to Goose Hunt Farm Airport? Find the distance to fly.

From to 3VA5

Sunrise and sunset
Times for 22-Jun-2021
 Local
(UTC-4)
 Zulu
(UTC)
Morning civil twilight05:1409:14
Sunrise05:4609:46
Sunset20:3900:39
Evening civil twilight21:1101:11

Current date and time
Zulu (UTC)  22-Jun-2021 15:56:30
Local (UTC-4)  22-Jun-2021 11:56:30
 
METAR
KJYO 
4nm NE 
221535Z AUTO 33011G15KT 7SM +RA BKN013 BKN041 OVC060 13/13 A2985 RMK AO2 P0008
KIAD 
10nm SE 
221541Z 32010KT 1 1/2SM R01R/3500VP6000FT RA BR SCT011 BKN018 OVC050 18/17 A2983 RMK AO2 RAB00 P0005 T01830167 $
KHEF 
19nm S 
221456Z 35012KT 10SM OVC046 21/17 A2981 RMK AO2 SLP098 6//// T02060167 53016 PNO $
TAF
KIAD 
10nm SE 
221409Z 2214/2318 33008G16KT 6SM -SHRA SCT025 BKN050 OVC130 FM221600 34010G18KT 3SM SHRA SCT008 BKN015 OVC050 FM221800 33008G16KT P6SM VCSH SCT050 BKN130 FM222000 33010G18KT P6SM SCT050 FM230000 33004KT P6SM FEW250 FM231400 02008KT P6SM FEW050
NOTAMs
Click for the latest NOTAMs
NOTAMs are issued by the DoD/FAA and will open in a separate window not controlled by AirNav.

 

 
 

Would you like to see your business listed on this page?

 If your business provides an interesting product or service to pilots, flight crews, aircraft, or users of the Goose Hunt Farm Airport, you should consider listing it here.  To start the listing process, click on the button below
 
Add a business
 

Other Pages about Goose Hunt Farm Airport

Update a link
 
Copyright © AirNav, LLC. All rights reserved. Privacy Policy  Contact